sat.trackr.live / text

‹ back to catalog

ONEWEB-0308

NORAD 49094 · 2021-075V

PAYLOAD ACTIVE UNKNOWN

§ Identity

Operator
Country
UK
Launch date
2021-08-21
Launch site
TYMSC
Launch vehicle
Mass (kg)
RCS (m²)

Purposes: comms

External: N2YO · Heavens-Above · Gunter

§ Orbital elements

Epoch: 2026-09-20T03:15:19.276128Z

Period
109.72 min
Inclination
87.8985°
Eccentricity
0.0001858
Mean motion
13.12442267 rev/d
Perigee alt
1,212.3 km
Apogee alt
1,215.1 km
Semi-major
7,591.9 km
B*
-7.3992e-4
RAAN
331.8133°
Arg perigee
97.9330°
Mean anomaly
262.2010°
Rev number
24,701

§ Raw data

ONEWEB-03081 49094U 21075V   26263.13563977 -.00000253  00000+0 -73992-3 0  99952 49094  87.8985 331.8133 0001858  97.9330 262.2010 13.12442267247017

JSON: /api/v1/satellites/49094 · /tle

For live sub-satellite position, see the globe view (requires WebGL).

§ Visibility from observer

Set your observer location to see the next 7 days of passes ≥ 10°. The values pass through the URL so the page stays shareable.

No JS? Fill the form by hand. The geolocation button needs JavaScript.